User: anonymous   Login
Location: Caltech
(34.1382°N, 118.1253°W)
Time: 17:13:19
(UTC-07:00)
Language:

Iridium 75 - Orbit

View from above orbital plane
View from above orbital plane
View from above satellite
View from above satellite

Ground track
Ground track

The orbit data is extracted from the following two-line orbital elements,

1 25346U 98032E   17268.31878902  .00000227  00000-0  74111-4 0  9993
2 25346  86.4024 182.2875 0002243  81.3302 278.8148 14.34219438 14021
Epoch (UTC): 25 September 2017 07:39:03
Eccentricity: 0.0002243
inclination: 86.4024°
perigee height: 776 km
apogee height: 779 km
right ascension of ascending node: 182.2875°
argument of perigee: 81.3302°
revolutions per day: 14.34219438
mean anomaly at epoch: 278.8148°
orbit number at epoch: 1402

The dashed part of the orbit path shows where the satellite is in the earth's shadow,  

DLR